Weather History for Yoho Park, BC

Change the Weather History Date:

Wednesday, October 31, 2012

  Actual Average Record
Temperature  
Mean Temperature 30 °F -  
Max Temperature 32 °F - - ()
Min Temperature 27 °F - - ()
Degree Days  
Heating Degree Days 36    
Moisture  
Dew Point 29 °F    
Average Humidity 97    
Maximum Humidity 100    
Minimum Humidity 91    
Precipitation  
Precipitation 0.00 in - - ()
Sea Level Pressure  
Sea Level Pressure 30.01 in    
Wind  
Wind Speed 5 mph ()    
Max Wind Speed 9 mph    
Max Gust Speed -    
T = Trace of Precipitation, MM = Missing Value Source: Averaged Metar Reports

Daily Weather History Graph

Daily Weather History Graph

Search for Another Location

Airport:

Trip Planner

Search our weather history database for the weather conditions in past years. The results will help you decide how hot, cold, wet, or windy it might be!

Date:

Astronomy

Oct. 31, 2012 Rise Set
Actual Time 8:38 AM MDT 6:19 PM MDT
Civil Twilight 8:02 AM MDT 6:54 PM MDT
Nautical Twilight 7:23 AM MDT 7:33 PM MDT
Astronomical Twilight 6:44 AM MDT 8:12 PM MDT
Moon 7:19 PM MDT (10/31) 10:36 AM MDT (10/31)
Length of Visible Light 10h 51m
Length of Day
9h 40m
Full, 97% of the Moon is Illuminated
Oct 31
Full
Nov 6
Last Quarter
Nov 13
New
Nov 20
First Quarter
Nov 28
Full

Hourly Weather History & Observations

Time (MDT) Temp. Windchill Dew Point Humidity Pressure Visibility Wind Dir Wind Speed Gust Speed Precip Events Conditions
12:00 AM 32 °F - 32 °F 99% 30.04 in - ENE 4.6 mph - -  
12:00 AM 31.6 °F 27.0 °F 31.8 °F 100% 30.04 in - ENE 4.6 mph - N/A   Unknown
1:00 AM 31.6 °F 27.0 °F 31.1 °F 98% 30.06 in - ENE 4.6 mph - N/A   Unknown
2:00 AM 31.5 °F 25.8 °F 30.9 °F 98% 30.07 in - ENE 5.8 mph - N/A   Unknown
3:00 AM 30.9 °F 23.5 °F 30.4 °F 98% 30.07 in - ENE 8.1 mph - N/A   Unknown
4:00 AM 30.2 °F 23.4 °F 29.7 °F 98% 30.07 in - East 6.9 mph - N/A   Unknown
5:00 AM 29.1 °F 22.1 °F 28.6 °F 98% 30.07 in - ENE 6.9 mph - N/A   Unknown
6:00 AM 29 °F - 28 °F 95% 30.07 in - East 6.9 mph - -  
6:00 AM 28.6 °F 21.5 °F 28.0 °F 98% 30.07 in - East 6.9 mph - N/A   Unknown
7:00 AM 28.4 °F 20.4 °F 27.7 °F 97% 30.06 in - East 8.1 mph - N/A   Unknown
8:00 AM 27.9 °F 20.6 °F 27.0 °F 96% 30.05 in - ENE 6.9 mph - N/A   Unknown
9:00 AM 27.5 °F 18.6 °F 26.4 °F 96% 30.05 in - ENE 9.2 mph - N/A   Unknown
10:00 AM 27.7 °F 18.8 °F 26.6 °F 96% 30.04 in - ENE 9.2 mph - N/A   Unknown
11:00 AM 28.2 °F 21.0 °F 27.1 °F 96% 30.04 in - ENE 6.9 mph - N/A   Unknown
12:00 PM 29 °F - 27 °F 91% 30.03 in - ENE 6.9 mph - -  
12:00 PM 28.6 °F 21.5 °F 27.3 °F 95% 30.03 in - ENE 6.9 mph - N/A   Unknown
1:00 PM 29.3 °F 24.3 °F 28.2 °F 96% 30.02 in - ENE 4.6 mph - N/A   Unknown
2:00 PM 30.0 °F 25.2 °F 29.1 °F 96% 30.00 in - ENE 4.6 mph - N/A   Unknown
3:00 PM 30.6 °F 27.1 °F 29.5 °F 96% 29.99 in - NE 3.5 mph - N/A   Unknown
4:00 PM 30.7 °F 26.0 °F 29.8 °F 96% 29.98 in - ENE 4.6 mph - N/A   Unknown
5:00 PM 31.3 °F 27.9 °F 30.4 °F 96% 29.97 in - East 3.5 mph - N/A   Unknown
6:00 PM 31 °F - 31 °F 97% 29.96 in - East 2.3 mph - -  
6:00 PM 31.3 °F - 30.6 °F 97% 29.96 in - East 2.3 mph - N/A   Unknown
7:00 PM 31.5 °F - 30.7 °F 97% 29.95 in - WSW 1.2 mph - N/A   Unknown
8:00 PM 31.8 °F - 31.1 °F 97% 29.94 in - Calm Calm - N/A   Unknown
9:00 PM 32.0 °F - 31.5 °F 98% 29.92 in - Calm Calm - N/A   Unknown
10:00 PM 32.0 °F - 31.5 °F 98% 29.91 in - SW 2.3 mph - N/A   Unknown
11:00 PM 31.8 °F - 31.6 °F 99% 29.90 in - West 2.3 mph - N/A   Unknown